Weather Roundup
Issued by NWS

Home | Current Version | Previous Version | Graphics & Text | Print | Product List | Glossary Off
Versions: 1 2 3 4 5 6 7 8 9 10 11 12 13 14 15 16 17 18 19 20 21 22 23 24 25 26 27 28 29 30 31 32 33 34 35 36 37 38 39 40 41 42 43 44 45 46 47 48 49 50

000
NZUS93 KARX 272310
HRRWXR

CURRENT HOURLY OBSERVATIONS ACROSS
MUCH OF THE UPPER MISSISSIPPI VALLEY
NATIONAL WEATHER SERVICE LA CROSSE WI
600 PM CDT THU JUL 27 2017


...SOUTHEAST MINNESOTA...


CITY           SKY/WX    TMP DP  RH WIND       PRES   REMARKS
ROCHESTER      SUNNY     80  62  54 N12       30.03F
ROCHESTER/MAYO FAIR      81  56  42 N8        30.03F
WINONA         SUNNY     81  61  50 N8        30.00S
AUSTIN         MOSUNNY   81  61  50 N8        30.03S
ALBERT LEA     SUNNY     81  63  54 NE9       30.03F
DODGE CENTER   SUNNY     79  61  53 N8        30.04S
PRESTON        SUNNY     78  61  55 N6        30.03S
OWATONNA       SUNNY     81  61  50 N5        30.03F
FARIBAULT      SUNNY     81  63  54 N3        30.04S
$$

...ELSEWHERE IN MINNESOTA...


CITY           SKY/WX    TMP DP  RH WIND       PRES   REMARKS
MINNEAPOLIS    MOSUNNY   84  56  38 N9        30.02F
INTNL FALLS    MOSUNNY   77  59  53 NE3       30.06S
DULUTH         MOSUNNY   75  60  59 SE9       30.06F
RED WING       SUNNY     82  55  39 NE3       30.00F
REDWOOD FALLS  MOSUNNY   83  59  44 N5        30.04F
MANKATO        SUNNY     81  62  52 N9        30.04F
WORTHINGTON    MOSUNNY   80  61  52 NE10      30.08S
FAIRMONT       SUNNY     81  64  56 N8        30.04F
$$

...SOUTHWEST WISCONSIN...


CITY           SKY/WX    TMP DP  RH WIND       PRES   REMARKS
LA CROSSE      SUNNY     86  63  45 NE6       29.98F
PRAIRIE DU CHI MOSUNNY   82  58  45 NE7       29.97F
BOSCOBEL       SUNNY     85  61  44 N5        29.98F
LONE ROCK      MOSUNNY   83  64  52 N7        29.97F
PLATTEVILLE    SUNNY     81  63  54 NE9       29.99F
FORT MC COY    PTSUNNY   82  62  50 NE5       29.99F
CAMP DOUGLAS   MOSUNNY   78  66  68 E5        29.99F
MAUSTON-NEW LI CLOUDY    80  64  57 E3        29.99S
VIROQUA        FAIR      77  66  69 CALM      30.01F
WIS DELLS      SUNNY     80  58  47 E9        30.00S
$$

...ELSEWHERE IN WISCONSIN...


CITY           SKY/WX    TMP DP  RH WIND       PRES   REMARKS
MILWAUKEE      MOSUNNY   75  58  55 N20G25    29.98S
MADISON        PTSUNNY   80  63  55 NE12      29.99S
GREEN BAY      SUNNY     77  62  59 NE13      30.01S
EAU CLAIRE     MOSUNNY   82  60  47 N8        30.01S
BLACK RVR FLS  FAIR      81  57  44 NE5       29.99F
MEDFORD        PTSUNNY   76  57  50 N3        30.03S
WAUSAU         CLOUDY    79  58  48 CALM      30.01F
WIS RAPIDS     MOSUNNY   82  60  47 E6        30.02F
MARSHFIELD     PTSUNNY   80  58  46 NE8       30.01F
RICE LAKE      MOSUNNY   81  56  41 N7        30.05F
$$

...NORTHEAST IOWA...


CITY           SKY/WX    TMP DP  RH WIND       PRES   REMARKS
WATERLOO       SUNNY     82  63  52 NE10      29.98F
DUBUQUE        MOSUNNY   79  62  56 NE10      29.98F
DECORAH        SUNNY     81  61  50 VRB5      30.00S
MASON CITY     SUNNY     77  64  64 N6        30.03F
CHARLES CITY   SUNNY     79  63  57 N6        30.01F
OELWEIN        MOSUNNY   81  64  57 NE7G13    30.00F
$$

...ELSEWHERE IN IOWA...


CITY           SKY/WX    TMP DP  RH WIND       PRES   REMARKS
DES MOINES     MOSUNNY   85  59  41 NE15G21   29.97F
IOWA CITY      SUNNY     85  65  51 NE12      29.96S
FORT DODGE     SUNNY     82  61  47 NE7       30.02F
MARSHALLTOWN   MOSUNNY   81  62  52 NE7       29.99S
CEDAR RAPIDS   MOSUNNY   82  64  54 NE9       29.95F
$$

...NORTHERN ILLINOIS...


CITY           SKY/WX    TMP DP  RH WIND       PRES   REMARKS
CHICAGO-OHARE  MOSUNNY   79  56  45 N17       29.94S
CHICAGO-MIDWAY MOSUNNY   79  62  56 N16       29.92S
MOLINE         MOSUNNY   83  68  60 NE13      29.92F
ROCKFORD       MOSUNNY   83  59  44 NE14      29.96S
PEORIA         CLOUDY    84  73  69 NE7       29.89S HX  90
$$

NOTE: "FAIR" INDICATES FEW OR NO CLOUDS BELOW 12,000 FEET WITH NO
SIGNIFICANT WEATHER AND/OR OBSTRUCTIONS TO VISIBILITY. WIND
SPEEDS ARE IN MILES-PER-HOUR.




USA.gov is the U.S. government's official web portal to all federal, state and local government web resources and services.